Location: Lombard
(41.8800°N, 88.0080°W)
Time: 23:24:09
(UTC-05:00)

Transit 2A - Pass Details

Date: 13 February 2023
Orbit: 591 x 964 km, 66.7° (Epoch: 20 March)

Event Time Altitude Azimuth Distance (km) Brightness Sun altitude
Rises 13:02:02 0° 163° (SSE) 2,973 9.8 33.4°
Reaches altitude 10° 13:04:59 10° 142° (SE) 2,130 8.9 33.2°
Maximum altitude 13:08:00 17° 103° (ESE) 1,795 8.0 33.1°
Drops below altitude 10° 13:11:12 10° 65° (ENE) 2,288 8.2 32.9°
Sets 13:14:31 0° 46° (NE) 3,304 8.8 32.7°
